[[{"header":{"parameterUnit":"m.s-1","parameterCategory":1,"la1":30.2991,"la2":30.254,"lo1":-89.0895,"lo2":-89.0444,"dy":0.0017,"dx":0.0017,"nx":28,"ny":28,"refTime":"2025-07-27T03:00:00:Z","depth":0,"parameterNumber":2,"parameterNumberName":"U-component_of_WINDS"},"data":[0,0,0,0,0,0,0,0,0,0,0,0,0,0,0,0,0,0,0,0,0,0,0,0,0,0,0,0,0,0,0,0,0,0,0,0,0,0,0,0,0,0,0,0,0,0,0,0,0,0,0,0,0,0,0,0,0,0,3.5241,3.5241,0,3.525,3.525,3.525,3.5107,3.5103,3.5099,3.5096,3.5109,3.5113,3.5117,0,0,0,0,0,0,0,0,0,0,0,0,0,3.5106,3.5109,3.5241,3.5241,3.5242,3.525,3.525,3.525,3.5108,3.5103,3.5098,3.5094,3.5108,3.5112,3.5117,0,0,0,0,0,0,0,0,0,0,0,0,0,3.5145,3.511,3.5241,3.5171,3.5165,3.525,3.525,3.525,3.5109,3.5103,3.5097,3.5092,3.5106,3.5112,3.5118,3.5271,0,0,3.5136,3.5139,0,0,0,0,0,0,0,0,3.5143,3.515,3.5182,3.5176,3.517,3.5171,3.5207,3.5257,3.511,3.513,3.5096,3.5089,3.5135,3.5138,3.5153,3.5272,3.5272,3.5137,3.514,3.5143,3.5144,0,0,0,0,0,0,0,3.5141,3.5149,3.5245,3.5182,3.5175,3.5141,3.514,3.5216,3.5165,3.5128,3.5118,3.5121,3.513,3.5147,3.5152,3.5272,3.5136,3.5142,3.5145,3.5148,3.5518,3.5524,0,0,0,0,0,0,3.5147,3.5148,3.5244,3.5245,3.5142,3.5148,3.5147,3.5177,3.5164,3.5156,3.5126,3.5114,3.514,3.5145,3.5152,3.5329,3.5143,3.5148,3.5152,3.5512,3.5519,3.5526,0,0,0,0,0,0,3.5144,3.5157,3.5244,3.5194,3.5202,3.5157,3.5191,3.518,3.5196,3.5162,3.5153,3.5152,3.5135,3.5143,3.5242,3.5328,3.5151,3.5156,3.5504,3.5514,3.5522,3.5687,0,0,0,0,0,0,3.5141,3.5157,3.5213,3.5196,3.5205,3.5333,3.5196,3.5184,3.5206,3.5191,3.5184,3.5177,3.5132,3.5234,3.5248,3.5333,3.5161,3.5496,3.5508,3.552,3.5674,3.5701,3.5724,0,0,0,0,0,3.5137,3.526,3.5217,3.5229,3.5275,3.5339,3.5344,3.5288,3.5214,3.5271,3.5249,3.5177,3.5317,3.5245,3.526,3.5348,3.5491,3.5505,3.5519,3.5662,3.5695,3.5723,0,0,0,0,0,0,3.529,3.5257,3.5208,3.5329,3.5338,3.5314,3.5384,3.5325,3.5355,3.534,3.527,3.527,3.538,3.5374,3.5295,3.5496,3.5391,3.5409,3.5495,3.5526,3.5551,3.555,3.5166,0,0,0,0,0,3.5338,3.5391,3.5359,3.547,3.5476,3.543,3.5456,3.5412,3.5418,3.5421,3.5406,3.5417,3.5462,3.5494,3.5535,3.5673,3.5669,3.5741,3.5766,3.5787,3.5803,3.5875,3.5906,3.5572,3.5572,3.5572,0,0,3.5437,3.5426,3.5464,3.55,3.5501,3.5559,3.5434,3.55,3.5543,3.5432,3.5523,3.5513,3.552,3.5639,3.5691,3.5638,3.5894,3.5805,3.5822,3.5826,3.5893,3.5924,3.5952,3.5582,3.558,3.5578,0,0,3.5647,3.5644,3.5735,3.5739,3.5742,3.5711,3.5733,3.5719,3.5708,3.5798,3.5716,3.5767,3.5847,3.5855,3.587,3.6085,3.602,3.6101,3.6232,3.6303,3.633,3.6353,3.6429,3.6457,3.6117,3.6117,3.6118,0,3.5771,3.5853,3.579,3.5862,3.588,3.5782,3.5874,3.5881,3.5899,3.5915,3.5854,3.5953,3.5951,3.607,3.6123,3.6139,3.6162,3.61,3.6331,3.6353,3.6374,3.6445,3.6474,3.6127,3.6126,3.6125,3.6124,0,3.6004,3.6063,3.6136,3.6154,3.6181,3.6263,3.6214,3.6249,3.6204,3.618,3.6274,3.6268,3.6305,3.6331,3.6287,3.6444,3.6411,3.6343,3.6235,3.6416,3.6482,3.6509,3.6141,3.6137,3.6134,3.6132,0,0,3.6309,3.6291,3.6319,3.6326,3.6323,3.6368,3.6446,3.6481,3.6513,3.6529,3.6593,3.6664,3.66,3.6618,3.6575,3.6638,3.6808,3.6561,3.656,3.6606,3.698,3.7031,3.7063,3.6765,3.677,3.6774,3.6979,0,3.6512,3.6642,3.6589,3.6725,3.6778,3.6687,3.6755,3.6762,3.6742,3.6785,3.6764,3.6815,3.6727,3.6737,3.6795,3.6775,3.6882,3.6759,3.6825,3.6828,3.6824,3.7098,3.7152,3.7345,3.7005,3.7009,3.7012,0,3.6765,3.6791,3.6932,3.692,3.694,3.7002,3.703,3.7073,3.708,3.7061,3.7081,3.7024,3.7101,3.6996,3.7102,3.702,3.7044,3.7038,3.7044,3.7047,3.693,3.7107,3.7405,3.7434,3.7053,3.7049,3.7046,0,3.6972,3.7042,3.7135,3.7144,3.7133,3.7178,3.7176,3.7176,3.7201,3.7227,3.7242,3.7278,3.7297,3.7326,3.7281,3.7209,3.7393,3.7284,3.738,3.7381,3.7421,3.7419,3.7726,3.744,3.744,3.7439,3.7439,0,3.7203,3.7293,3.7227,3.7285,3.7383,3.7322,3.7422,3.7409,3.7411,3.7465,3.7389,3.7442,3.738,3.7427,3.7393,3.7485,3.7495,3.7482,3.7472,3.7488,3.749,3.7502,3.7486,3.7447,3.7445,3.7444,3.7442,0,3.745,3.7409,3.7505,3.7487,3.7484,3.7558,3.7542,3.7595,3.7571,3.764,3.7653,3.7615,3.7667,3.7625,3.7676,3.7653,3.7775,3.7747,3.7773,3.7764,3.7862,3.7853,3.8186,3.8226,3.7916,3.7919,3.7922,0,3.7599,3.7666,3.7655,3.7685,3.7687,3.7737,3.7762,3.7706,3.7735,3.7748,3.7799,3.7845,3.7877,3.7965,3.7943,3.7982,3.7952,3.8067,3.7958,3.7972,3.7953,3.7948,3.7955,3.8088,3.8092,3.8095,3.8097,0,3.7868,3.7845,3.7882,3.7915,3.7946,3.7969,3.7986,3.8015,3.7958,3.7995,3.8046,3.8072,3.8124,3.817,3.8201,3.82,3.814,3.8132,3.8156,3.8172,3.8184,3.8178,3.7831,3.8124,3.8122,3.812,3.8118,3.8117,3.8068,3.8123,3.8124,3.817,3.8177,3.8194,3.8243,3.8224,3.8266,3.8303,3.8268,3.833,3.8336,3.8372,3.8378,3.8427,3.838,3.8415,3.8423,3.8432,3.8446,3.8178,3.8433,3.8432,3.8431,3.8431,3.843,0,3.8332,3.8328,3.8371,3.8396,3.8433,3.8372,3.8388,3.8423,3.8478,3.8488,3.8522,3.8582,3.8627,3.8608,3.8648,3.869,3.8664,3.8703,3.8698,3.8699,3.8486,3.8461,3.8723,3.8723,3.8723,3.8723,3.8723,3.8723,3.8473,3.8562,3.854,3.8633,3.8629,3.8689,3.8703,3.8719,3.8727,3.8797,3.8833,3.8821,3.882,3.8859,3.8897,3.8891,3.8909,3.8957,3.8941,3.8743,3.8714,3.8686,3.8662,3.8962,3.8962,3.9149,3.9151,3.9152]},{"header":{"parameterUnit":"m.s-1","parameterCategory":1,"la1":30.2991,"la2":30.254,"lo1":-89.0895,"lo2":-89.0444,"dy":0.0017,"dx":0.0017,"nx":28,"ny":28,"refTime":"2025-07-27T03:00:00:Z","depth":0,"parameterNumber":3,"parameterNumberName":"V-component_of_WINDS"},"data":[0,0,0,0,0,0,0,0,0,0,0,0,0,0,0,0,0,0,0,0,0,0,0,0,0,0,0,0,0,0,0,0,0,0,0,0,0,0,0,0,0,0,0,0,0,0,0,0,0,0,0,0,0,0,0,0,0,0,1.5348,1.5349,0,1.5458,1.5459,1.5461,1.5442,1.544,1.5438,1.5436,1.555,1.5555,1.556,0,0,0,0,0,0,0,0,0,0,0,0,0,1.512,1.5124,1.5347,1.5349,1.535,1.5458,1.5459,1.5461,1.5442,1.544,1.5437,1.5435,1.5549,1.5554,1.556,0,0,0,0,0,0,0,0,0,0,0,0,0,1.5224,1.5126,1.5347,1.5354,1.5355,1.5458,1.5459,1.5461,1.5443,1.544,1.5437,1.5434,1.5547,1.5554,1.5561,1.5664,0,0,1.5583,1.5586,0,0,0,0,0,0,0,0,1.5218,1.5232,1.5351,1.5353,1.5356,1.5433,1.5421,1.5529,1.5443,1.541,1.5436,1.5433,1.5514,1.5523,1.5551,1.5669,1.5674,1.5584,1.5588,1.5591,1.5593,0,0,0,0,0,0,0,1.5211,1.5227,1.5391,1.5353,1.5356,1.5351,1.5363,1.5442,1.5477,1.5412,1.5411,1.5424,1.5514,1.5544,1.5553,1.5676,1.5584,1.559,1.5595,1.5597,1.5883,1.5887,0,0,0,0,0,0,1.5201,1.5221,1.5388,1.5395,1.5278,1.5358,1.5371,1.5411,1.5476,1.5483,1.5427,1.5423,1.5533,1.5545,1.5557,1.5682,1.5591,1.5598,1.5602,1.588,1.5884,1.5888,0,0,0,0,0,0,1.5197,1.5216,1.5383,1.5308,1.5329,1.5365,1.541,1.5415,1.5444,1.5487,1.5493,1.545,1.5531,1.5547,1.5637,1.5685,1.5601,1.5608,1.5876,1.5881,1.5886,1.5931,0,0,0,0,0,0,1.519,1.5215,1.5254,1.5309,1.5333,1.5462,1.5413,1.5419,1.5457,1.5453,1.551,1.5517,1.553,1.5626,1.5644,1.5694,1.5614,1.5872,1.5879,1.5884,1.5926,1.5937,1.5947,0,0,0,0,0,1.5182,1.5263,1.5257,1.5277,1.5383,1.5465,1.5478,1.5491,1.5461,1.5501,1.5528,1.5515,1.5677,1.5636,1.5656,1.5708,1.5869,1.5877,1.5884,1.5921,1.5935,1.5947,0,0,0,0,0,0,1.5214,1.5271,1.5264,1.5365,1.541,1.5461,1.5512,1.5505,1.556,1.5555,1.5568,1.5581,1.5673,1.5699,1.5653,1.5811,1.5769,1.578,1.579,1.5804,1.5814,1.5806,1.562,0,0,0,0,0,1.5233,1.5295,1.534,1.5425,1.5448,1.5476,1.5512,1.5518,1.5565,1.5585,1.5618,1.5665,1.5726,1.5766,1.5825,1.5929,1.5941,1.5975,1.5985,1.5994,1.6004,1.606,1.6076,1.5912,1.5912,1.5911,0,0,1.5273,1.5311,1.5349,1.5432,1.5468,1.5531,1.5493,1.5561,1.5609,1.5595,1.5682,1.5709,1.5762,1.5859,1.5904,1.5884,1.6052,1.6003,1.6009,1.6015,1.6069,1.6085,1.6099,1.5917,1.5916,1.5915,0,0,1.5377,1.5412,1.5487,1.5523,1.5577,1.5595,1.5613,1.5665,1.5682,1.5769,1.576,1.5816,1.5922,1.596,1.5993,1.611,1.6101,1.6129,1.6185,1.6239,1.6252,1.6264,1.6306,1.632,1.6139,1.6139,1.6139,0,1.542,1.5515,1.5526,1.5595,1.5632,1.5622,1.5697,1.5732,1.5803,1.5828,1.5805,1.5936,1.5971,1.6077,1.6106,1.6133,1.6153,1.6123,1.6249,1.6261,1.6272,1.6312,1.6328,1.6142,1.6141,1.6141,1.6141,0,1.5564,1.563,1.5684,1.5752,1.5794,1.5866,1.5888,1.593,1.5931,1.5952,1.6041,1.6082,1.6149,1.6174,1.6177,1.628,1.6266,1.6246,1.6205,1.6291,1.6328,1.6344,1.6146,1.6145,1.6144,1.6143,0,0,1.5694,1.5766,1.5785,1.5815,1.5874,1.5925,1.5996,1.6061,1.6097,1.6145,1.6205,1.6294,1.6275,1.6313,1.6319,1.6367,1.6457,1.6341,1.6343,1.6362,1.6574,1.6589,1.6607,1.6451,1.6454,1.6456,1.6569,0,1.5804,1.5929,1.5941,1.6054,1.6114,1.6105,1.6167,1.6209,1.623,1.6285,1.6307,1.637,1.6341,1.6363,1.641,1.6436,1.65,1.6428,1.6507,1.651,1.6495,1.6626,1.6643,1.6748,1.6584,1.6587,1.6589,0,1.5949,1.6002,1.612,1.617,1.6196,1.6251,1.6311,1.6363,1.6411,1.6422,1.6464,1.6463,1.6536,1.6491,1.6592,1.6543,1.6575,1.6593,1.6597,1.6606,1.6555,1.6639,1.6781,1.6797,1.6612,1.661,1.6608,0,1.6031,1.6132,1.6216,1.6242,1.6301,1.6341,1.6367,1.6412,1.645,1.6502,1.6526,1.6586,1.6619,1.6666,1.6681,1.6647,1.6781,1.6738,1.6793,1.6793,1.6823,1.6821,1.6973,1.6843,1.6843,1.6842,1.6842,0,1.6153,1.6226,1.6253,1.6305,1.6386,1.6398,1.6478,1.6503,1.6543,1.6599,1.6594,1.6647,1.6664,1.672,1.6733,1.6814,1.6829,1.684,1.6843,1.6841,1.684,1.6863,1.6857,1.6846,1.6846,1.6845,1.6844,0,1.6259,1.628,1.6371,1.6419,1.6433,1.6491,1.6533,1.6582,1.6601,1.6673,1.669,1.672,1.6786,1.6805,1.6884,1.6893,1.6988,1.6984,1.6972,1.6972,1.7026,1.7021,1.72,1.7224,1.7077,1.7079,1.708,0,1.6336,1.6392,1.6446,1.6483,1.6511,1.6571,1.661,1.6623,1.6663,1.6721,1.6764,1.6828,1.6881,1.6985,1.7014,1.7074,1.7072,1.713,1.7081,1.7077,1.7073,1.7069,1.7075,1.7139,1.7141,1.7142,1.7143,0,1.647,1.6477,1.6532,1.6592,1.6637,1.6684,1.673,1.676,1.6781,1.6826,1.6892,1.6933,1.7012,1.7076,1.7137,1.7164,1.7158,1.7158,1.7174,1.7174,1.7164,1.717,1.6997,1.7154,1.7153,1.7153,1.7152,1.7151,1.6564,1.6613,1.6658,1.672,1.6755,1.6798,1.6847,1.6872,1.6927,1.6993,1.6998,1.707,1.7115,1.7196,1.7226,1.7282,1.7265,1.7288,1.7294,1.73,1.7305,1.7155,1.7293,1.7293,1.7293,1.7292,1.7292,0,1.6697,1.6726,1.6783,1.6846,1.6894,1.6883,1.6932,1.6974,1.7037,1.708,1.7131,1.7207,1.7269,1.7302,1.7363,1.7402,1.74,1.7418,1.7415,1.7422,1.7316,1.7296,1.7418,1.7418,1.7418,1.7418,1.7418,1.7418,1.6773,1.6855,1.6868,1.6967,1.6995,1.7066,1.7095,1.7134,1.7168,1.7253,1.7304,1.7325,1.7364,1.7428,1.7484,1.7492,1.7515,1.7535,1.7541,1.7442,1.7429,1.7417,1.7398,1.7539,1.754,1.7642,1.7643,1.7644]}]]